Home   Weather   Tönisvorst   Past weeks

Flag for Germany Past Weather in Tönisvorst, North Rhine-Westphalia, Germany — Yesterday and Last 2 Weeks

Now
18 °F

Clear.


Feels Like: 18 °F
Forecast: 29 / 35 °F
Wind: 1 mph from Southwest

Location: Duesseldorf

Current Time: Jan 23, 2017 at 3:52:43 am

Latest Report: Jan 23, 2017 at 3:20 am


Visibility: 10 mi

Pressure: 30.30 "Hg

Humidity: 93%

Dew Point: 16 °F

Location of TönisvorstLocation

Past Weather in Tönisvorst — Graph

°F

Tönisvorst Temperature Yesterday

Maximum temperature yesterday: 37 °F (at 1:20 pm)
Minimum temperature yesterday: 19 °F (at 11:20 pm)
Average temperature yesterday: 28 °F

High & Low Weather Summary for the Past Weeks

 TemperatureHumidityPressure
High46 °F (Jan 11, 2:20 pm)100% (Jan 8, 2:20 am)30.72 "Hg (Jan 8, 2:20 am)
Low18 °F (Jan 19, 6:20 am)39% (Jan 19, 2:50 pm)28.94 "Hg (Jan 13, 1:20 am)
Average33 °F82%30.19 "Hg
* Reported Jan 8 2:20 am — Jan 23 2:50 am, Tönisvorst, Weather by CustomWeather, © 2017

Note: Actual official high and low records may vary slightly from our data, if they occured in-between our weather recording intervals... More about our weather records

Advertising

Tönisvorst Weather History for the Previous 24 Hours

Scroll right to see more
 ConditionsComfort  
Time TempWeatherWind HumidityBarometerVisibility
2:50 am
Mon, Jan 23
19 °FClear.3 mph93%30.33 "Hg10 mi
2:20 am19 °FClear.2 mph93%30.33 "Hg10 mi
1:50 am18 °FClear.3 mph93%30.30 "Hg10 mi
1:20 am19 °FClear.2 mph93%30.30 "Hg10 mi
12:50 am19 °FClear.1 mph93%30.30 "Hg10 mi
12:20 am19 °FClear.1 mph93%30.30 "Hg10 mi
11:50 pm
Sun, Jan 22
19 °FClear.1 mph93%30.30 "Hg10 mi
11:20 pm19 °FClear.1 mph93%30.30 "Hg10 mi
10:50 pm21 °FClear.2 mph93%30.30 "Hg10 mi
10:20 pm23 °FClear.2 mph86%30.30 "Hg10 mi
9:50 pm23 °FClear.2 mph86%30.30 "Hg10 mi
9:20 pm23 °FClear.2 mph86%30.30 "Hg10 mi
8:50 pm23 °FClear.1 mph86%30.30 "Hg10 mi
8:20 pm25 °FClear.1 mph86%30.30 "Hg10 mi
7:50 pm25 °FClear.1 mph86%30.30 "Hg10 mi
7:20 pm25 °FClear.1 mph86%30.30 "Hg10 mi
6:50 pm27 °FClear.1 mph80%30.30 "Hg10 mi
6:20 pm27 °FClear.2 mph80%30.30 "Hg10 mi
5:50 pm28 °FClear.1 mph74%30.30 "Hg10 mi
5:20 pm32 °FClear.3 mph64%30.30 "Hg10 mi
4:50 pm34 °FSunny.5 mph60%30.30 "Hg10 mi
4:20 pm36 °FSunny.3 mph56%30.30 "Hg10 mi
3:50 pm36 °FSunny.6 mph52%30.30 "Hg10 mi
3:20 pm37 °FSunny.6 mph48%30.30 "Hg10 mi
2:50 pm37 °FPassing clouds.3 mph48%30.30 "HgN/A
2:20 pm37 °FPassing clouds.3 mph45%30.30 "HgN/A
1:50 pm37 °FSunny.5 mph45%30.30 "Hg10 mi
1:20 pm37 °FPassing clouds.5 mph45%30.30 "HgN/A
12:50 pm36 °FPassing clouds.6 mph52%30.30 "HgN/A
12:20 pm34 °FSunny.7 mph51%30.33 "Hg10 mi
11:50 am34 °FPassing clouds.6 mph51%30.33 "HgN/A
11:20 am32 °FPassing clouds.6 mph55%30.36 "HgN/A
10:50 am32 °FSunny.5 mph60%30.33 "Hg10 mi
10:20 am30 °FPassing clouds.5 mph64%30.33 "HgN/A
9:50 am30 °FSunny.2 mph69%30.33 "Hg10 mi
9:20 am25 °FSunny.2 mph74%30.33 "Hg10 mi
8:50 am25 °FPassing clouds.3 mph74%30.33 "HgN/A
8:20 am25 °FClear.5 mph74%30.33 "Hg10 mi
7:50 am25 °FPassing clouds.5 mph74%30.33 "HgN/A
7:20 am25 °FClear.6 mph74%30.33 "Hg10 mi
6:50 am23 °FClear.2 mph74%30.33 "Hg10 mi
6:20 am25 °FClear.2 mph74%30.33 "Hg10 mi
5:50 am25 °FClear.6 mph74%30.33 "Hg10 mi
5:20 am27 °FClear.5 mph69%30.33 "Hg10 mi
4:50 am28 °FPassing clouds.6 mph64%30.33 "HgN/A
4:20 am27 °FClear.6 mph69%30.33 "Hg10 mi
3:50 am28 °FClear.8 mph64%30.33 "Hg10 mi
3:20 am27 °FClear.6 mph74%30.36 "Hg10 mi
Weather by CustomWeather, © 2017

See weather overviewHow to use our weather pages